CDT,Max TemperatureF,Mean TemperatureF,Min TemperatureF,Max Dew PointF,MeanDew PointF,Min DewpointF,Max Humidity, Mean Humidity, Min Humidity, Max Sea Level PressureIn, Mean Sea Level PressureIn, Min Sea Level PressureIn, Max VisibilityMiles, Mean VisibilityMiles, Min VisibilityMiles, Max Wind SpeedMPH, Mean Wind SpeedMPH, Max Gust SpeedMPH,PrecipitationIn, CloudCover, Events, WindDirDegrees
2014-3-1,-3,-7,-12,-9,-17,-23,79,63,47,30.76,30.65,30.47,,,,23,15,31,0.00,,,358
2014-3-2,10,-1,-12,-7,-16,-21,69,53,37,30.74,30.70,30.64,,,,20,11,28,0.00,,,324
2014-3-3,15,9,2,1,-5,-12,68,51,33,30.63,30.41,30.24,,,,24,11,29,T,,,169
2014-3-4,14,11,8,10,5,1,92,77,61,30.39,30.28,30.21,,,,14,8,18,0.09,,,102
2014-3-5,21,17,12,14,10,8,88,83,77,30.47,30.37,30.19,,,,25,12,30,0.00,,,164
2014-3-6,39,26,12,30,24,9,92,78,64,30.15,29.87,29.73,,,,30,14,37,0.00,,,182
2014-3-7,34,23,11,30,17,7,100,82,63,30.40,30.13,29.78,,,,30,20,37,0.02,,,358
2014-3-8,31,20,9,20,12,5,83,67,50,30.45,30.33,30.04,,,,28,9,35,0.00,,,281
2014-3-9,52,42,31,37,32,23,70,60,50,29.98,29.73,29.63,,,,28,16,35,0.00,,,265
2014-3-10,59,49,38,39,36,33,76,58,40,29.76,29.69,29.64,,,,24,9,30,0.00,,,324
2014-3-11,40,32,24,34,28,20,89,74,59,30.23,30.01,29.77,,,,26,13,32,T,,,5
2014-3-12,37,29,21,29,22,18,92,84,75,30.22,30.15,30.02,,,,14,8,,0.02,,,137
2014-3-13,60,48,36,36,33,29,75,56,37,29.84,29.65,29.54,,,,31,16,40,0.00,,,280
2014-3-14,43,34,24,33,28,21,92,78,64,30.04,29.81,29.62,,,,29,17,38,0.00,,,352
2014-3-15,29,21,13,20,12,8,84,69,53,30.56,30.30,30.04,,,,22,13,25,0.00,,,34
2014-3-16,37,22,6,22,12,4,91,66,41,30.59,30.31,29.78,,,,37,13,50,0.00,,,208
2014-3-17,51,42,32,32,28,21,89,68,46,29.68,29.53,29.43,,,,39,12,50,0.06,,,145
2014-3-18,32,30,27,31,28,25,92,89,85,29.98,29.82,29.61,,,,21,14,24,0.15,,,23
2014-3-19,38,33,28,33,27,25,92,81,70,30.04,30.01,29.98,,,,15,6,18,0.02,,,339
2014-3-20,53,41,29,37,30,24,85,65,44,30.00,29.90,29.77,,,,18,8,24,T,,,200
2014-3-21,38,26,14,36,24,5,100,81,61,30.44,30.02,29.71,,,,37,21,45,0.05,,,352
2014-3-22,25,17,9,7,5,0,76,62,47,30.63,30.57,30.46,,,,23,13,27,0.00,,,356
2014-3-23,30,19,8,15,7,4,83,59,35,30.63,30.50,30.38,,,,13,6,21,0.00,,,294
2014-3-24,32,24,16,19,12,4,92,62,32,30.38,30.31,30.25,,,,30,16,37,0.00,,,338
2014-3-25,29,18,7,9,3,0,73,51,29,30.43,30.32,30.14,,,,28,11,32,0.00,,,322
2014-3-26,53,34,14,30,19,7,82,58,33,30.11,29.70,29.42,,,,26,13,32,0.00,,,153
2014-3-27,35,27,19,28,23,13,92,77,61,29.99,29.66,29.43,,,,32,21,39,0.03,,,5
2014-3-28,34,24,13,16,9,3,84,56,28,30.33,30.21,30.02,,,,17,9,21,0.00,,,3
2014-3-29,46,31,15,33,22,11,92,66,39,30.32,30.11,29.83,,,,29,15,36,0.00,,,180
2014-3-30,62,45,27,39,34,26,92,66,40,29.82,29.78,29.72,,,,24,10,33,0.00,,,78
2014-3-31,45,30,15,34,25,13,96,83,70,29.81,29.63,29.54,,,,58,25,59,0.40,,,2